Location: Sandbach
(53.1410°N, 2.3660°W)
Time: 14:08:14
(UTC+00:00)

ISS - Pass Details

Date: 04 December 2021
Orbit: 413 x 422 km, 51.6° (Epoch: 18 January)

Event Time Altitude Azimuth Distance (km) Brightness Sun altitude
Rises 18:24:03 0° 280° (W) 2,385 1.3 -21.3°
Reaches altitude 10° 18:26:26 10° 265° (W) 1,515 0.2 -21.6°
Maximum altitude 18:29:09 23° 212° (SSW) 963 -1.5 -22.0°
Enters shadow 18:30:13 19° 184° (S) 1,064 -1.6 -22.2°
